Voltar ao catálogo

NOAA 16 DEB

AtivoSSO
NORAD 41409·DEBRIS·🇺🇸 United States

Lançado Sep 21, 2000 de Vandenberg Space Force Base

Loading…

Próximas Passagens (próximas 24 horas)

TLE

AtualizadoSource: Space-Track

Época: Sep 12, 2026, 11:45 UTC

1 41409U 00055KN  26255.49001263  .00004108  00000-0  11939-2 0  9991
2 41409  98.6386 344.3327 0022418 298.5889  61.3046 14.44692437548575

Acompanhe NOAA 16 DEB em tempo real com AllMySat

Download on the App Store